FREGAT DEB, 46238

Orbit data source: Space-Track

FREGAT DEB, 46238 is space debris in LEO originally from a launch on Mon, 18 Jul 2011 UTC launched from the Tyuratam Missile And Space Complex (TTMTR). Debris objects in space refer to the collection of defunct objects orbiting the Earth. Examples of debris include non-operational satellites, rocket bodies, and fragments generated from explosions, collisions, or faulty payload assembly.

Loading next visibility...
Identifier
46238, 2011-037JY
Orbit
LEO
Country
Flag of CISCIS
Related business
Manufacturer
Lavochkin
Mission
Spacecraft
Bus & Motor
Unknown
Mass
Unknown
Launch date (UTC)
2011-07-18 (15 years ago)
Launch vehicle
Unknown
Launch site
Tyuratam Missile And Space Complex (TTMTR)
Object type
Payload
Rocket body
Debris
Shape & HBR
Unknown shape, 0.1 m
Radar Cross Section
Medium (>0.1 m² and <1 m²)

Expand to show TLE details & history
Last TLE update: 22 hours ago

TLE from 22 hours ago
0 FREGAT DEB
1 46238U 11037JY  26126.07941101 -.00037278  00000-0 -24285+1 0  9995
2 46238  50.4146  17.4765 0547217 320.3752  35.8185 10.32808284217379
Epoch: 2026-05-06T01:54Z
TLE epoch observation values (Epoch: 2026-05-06T01:54:21.111Z)
Latitude
-0.00001°
Longitude
124.94348°
Altitude
2,143.714 km
Speed
6.987 km/s
True Right ascension
01h 09m 54s
True Declination
0° 00' 00"
Sunlit
Object was in daylight at epoch
Visualization orbit readout
Latitude
Unknown
Longitude
Unknown
Altitude
Unknown
Speed
Unknown
Apparent Right ascension
Unknown
Apparent Declination
Unknown
Sunlit
N/A
Visualization observer readout
Local Sidereal Time
07:58:52
Azimuth
Unknown
Elevation
Unknown
Doppler factor
Unknown
Orbital elements
Apogee altitude
3,016.643 km
Perigee altitude
2,041.792 km
Semi-major axis
8,907.354 km
Eccentricity
0.05472
Inclination
50.4146°
RAAN
17.4765°
Arg. of periapsis
320.3752°
True anomaly
39.70016°
Mean anomaly
35.8185°
Eccentric anomaly
37.73746°
Mean motion
2.58179 °/min
Orbital period
139.44 mins
BSTAR
-2.4285
Loading maneuver chart data...
Computing Atmospheric mass density...
Loading historical data...
Loading historical data...
Loading historical data...
Loading historical data...
Loading historical data...
Loading historical data...
Loading historical data...

Documentation

Showing up to 5 results
|